SCP
0 0 0 0 0 0 0 0 0 0 0 0 0 1 0 1 1 1 1 1 1 2 3 2 1 1 0 0 0 0 0 0 0 0 0 0 0 0 0 0 0 0 0 0
-0 0 0 0 0 0 0 0 -0 0 0 0 0 0 0 1 1 1 1 1 2 1 1 1 1 0 0 0 0 0 0 0 0 0 0 0 0 0 0 0 0 0 0 0
-0 0 0 -0 -0 -0 0 0 0 -0 0 0 0 0 0 0 1 0 0 0 1 0 0 0 0 0 0 0 0 0 0 0 0 0 0 0 0 0 0 0 0 0 0 0
0 0 -0 0 -0 0 0 -0 0 0 -0 0 -0 0 0 0 0 0 0 0 0 0 0 0 0 0 0 0 0 0 0 0 0 0 0 0 0 0 0 0 0 0 0 0
-0 0 0 0 0 0 0 0 -0 -0 -0 0 -0 -0 0 0 0 0 0 0 0 0 0 0 0 0 0 0 0 0 0 0 0 0 0 0 0 0 0 0 0 0 0 0
0 -0 0 0 0 -0 0 0 -0 -0 0 0 -0 -0 0 0 0 0 0 0 0 0 0 0 0 0 0 0 0 0 0 0 0 0 0 0 0 0 0 0 0 0 0 0
0 0 0 0 -0 0 0 0 0 -0 -0 -0 0 0 0 0 0 0 0 0 0 0 0 0 0 0 0 0 0 0 0 0 0 0 0 0 0 0 0 0 0 0 0 0
0 0 0 -0 0 0 0 0 0 0 -0 0 -0 -0 0 0 0 0 0 0 0 0 0 0 0 0 0 0 0 0 0 0 0 0 0 0 0 0 0 0 0 0 0 0
0 0 -0 0 0 -0 -0 0 0 0 0 -0 -0 -0 -0 -0 -0 0 0 0 0 0 0 0 0 0 0 0 0 0 0 0 0 0 0 0 0 0 0 0 0 0 0 0
0 0 -0 0 0 -0 -0 0 -0 0 0 0 -0 0 -0 0 0 -0 0 0 0 0 0 0 0 0 0 0 0 0 0 0 0 0 0 0 0 0 0 0 0 0 0 0
0 0 0 0 -0 -0 -0 -0 -0 -0 0 0 0 -0 -0 0 0 0 0 0 0 0 0 0 0 0 0 0 0 0 0 0 0 0 0 0 0 0 0 0 0 0 0 0
0 0 0 0 0 0 -0 -0 -0 -0 0 0 0 0 0 0 0 0 0 0 0 0 0 0 0 0 0 0 0 0 0 0 0 0 0 0 0 0 0 0 0 0 0 0
-0 -0 -0 -0 -0 -0 -0 -0 -0 -0 -0 -0 0 0 0 0 0 0 0 0 0 0 0 0 0 0 0 0 0 0 0 0 0 0 0 0 0 0 0 0 0 0 0 0
-0 -0 -0 -0 -0 0 0 -0 -0 -0 0 0 0 0 0 0 0 0 0 0 0 0 0 0 0 0 0 0 0 0 0 0 0 0 0 0 0 0 0 0 0 0 0 0
-0 0 0 0 0 -0 -0 -0 -0 0 0 0 0 0 0 0 0 0 0 0 0 0 0 0 0 0 0 0 0 0 0 0 0 0 0 0 0 0 0 0 0 0 0 0
0 -0 -0 -0 -0 -0 -0 0 0 0 0 0 0 0 0 0 0 0 0 0 0 0 0 0 0 0 0 0 0 0 0 0 0 0 0 0 0 0 0 0 0 0 0 0
-0 -0 -0 -0 -0 -0 -0 -0 -0 -0 -0 -0 -0 -0 -0 -0 -0 -0 -0 0 0 0 0 0 0 0 0 0 0 0 0 0 0 0 0 0 0 0 0 0 0 0 0 0
-0 -0 -0 -0 -0 -0 -0 -0 -0 -0 -0 0 0 0 0 0 0 0 0 0 0 0 0 0 0 0 0 0 0 0 0 0 0 0 0 0 0 0 0 0 0 0 0 0
-0 -0 -0 -0 -0 0 0 0 0 0 0 0 0 0 0 0 0 0 0 0 0 0 0 0 0 0 0 0 0 0 0 0 0 0 0 0 0 0 0 0 0 0 0 0
-0 0 0 0 0 0 0 0 0 0 0 0 0 0 0 0 0 0 0 0 0 0 0 0 0 0 0 0 0 0 0 0 0 0 0 0 0 0 0 0 0 0 0 0
0 0 0 0 0 0 0 0 0 0 0 0 0 0 0 0 0 0 0 0 0 0 0 0 0 0 0 0 0 0 0 0 0 0 0 0 0 0 0 0 0 0 0 0
0 0 0 0 0 0 0 0 0 0 0 0 0 0 0 0 0 0 0 0 0 0 0 0 0 0 0 0 0 0 0 0 0 0 0 0 0 0 0 0 0 0 0 0
0 0 0 0 0 0 0 0 0 0 0 0 0 0 0 0 0 0 0 0 0 0 0 0 0 0 0 0 0 0 0 0 0 0 0 0 0 0 0 0 0 0 0 0
0 0 0 0 0 0 0 0 0 0 0 0 0 0 0 0 0 0 0 0 0 0 0 0 0 0 0 0 0 0 0 0 0 0 0 0 0 0 0 0 0 0 0 0
0 0 0 0 0 0 0 0 0 0 0 0 0 0 0 0 0 0 0 0 0 0 0 0 0 0 0 0 0 0 0 0 0 0 0 0 0 0 0 0 0 0 0 0
0 0 0 0 0 0 0 0 0 0 0 0 0 0 0 0 0 0 0 0 0 0 0 0 0 0 0 0 0 0 0 0 0 0 0 0 0 0 0 0 0 0 0 0
0 0 0 0 0 0 0 0 0 0 0 0 0 0 0 0 0 0 0 0 0 0 0 0 0 0 0 0 0 0 0 0 0 0 0 0 0 0 0 0 0 0 0 0
Wind_Speed_500mb
34 38 41 43 45 41 33 32 30 30 29 21 19 15 13 14 24 32 38 46 46 58 69 75 76 78 77 74 73 73 73 71 67 59 51 44 36 27 19 12 7 4 6 7
37 36 37 48 47 43 38 35 29 23 13 3 11 14 6 19 23 28 37 48 61 75 87 85 80 74 74 75 72 68 68 66 58 50 42 34 26 18 10 4 6 7 11 12
15 20 41 21 49 39 37 40 36 35 26 18 21 19 13 32 32 46 47 38 67 78 79 77 77 80 74 68 68 65 63 58 54 46 41 32 18 6 5 11 16 18 18 18
15 21 10 22 26 34 34 37 25 39 26 23 28 28 22 37 54 64 82 64 71 82 79 75 74 73 67 63 62 62 59 54 46 37 29 20 7 4 10 14 15 14 14 8
7 13 15 30 29 15 13 28 29 42 34 32 38 55 35 45 56 60 69 77 74 82 77 73 71 62 65 62 59 55 48 41 32 23 17 8 5 8 9 11 17 10 5 8
7 11 13 16 35 47 23 13 53 51 31 38 49 25 7 52 61 56 67 66 74 75 71 71 55 59 58 53 50 45 35 27 21 15 9 5 7 9 11 14 8 3 6 10
10 9 6 28 49 46 7 6 21 69 76 61 27 27 54 70 66 64 64 63 66 72 71 65 65 59 55 48 45 31 26 17 13 19 12 14 12 5 10 11 13 14 16 20
5 5 5 46 30 14 18 28 18 54 71 52 82 80 64 65 67 65 67 67 69 69 65 55 47 43 42 39 32 23 13 15 15 20 17 10 15 15 16 20 21 21 22 18
9 6 21 28 25 38 38 39 26 19 58 86 87 77 73 70 71 71 69 66 62 57 54 48 44 34 29 27 21 16 10 14 18 11 15 12 18 19 15 16 18 17 11 8
6 9 24 27 24 39 50 58 63 58 68 78 87 79 74 75 73 68 58 52 49 49 43 43 33 26 16 10 3 1 2 10 6 2 13 17 12 14 11 18 16 9 8 8
5 6 11 33 33 41 65 62 67 64 62 68 84 77 83 74 74 65 52 42 37 34 30 31 23 19 16 9 9 3 8 14 6 10 5 7 7 11 13 14 12 11 12 9
5 16 12 31 48 52 76 67 68 75 71 66 77 79 86 79 69 60 49 45 41 35 31 25 16 11 4 1 10 14 7 15 22 10 5 7 18 21 17 11 8 12 11 11
16 46 52 52 57 74 82 81 82 79 80 85 78 77 73 68 59 51 38 31 28 24 23 18 14 7 2 4 4 14 14 12 23 17 17 16 14 15 14 16 18 18 12 11
31 24 41 36 37 55 70 67 65 68 64 62 58 55 51 48 33 26 22 23 22 18 16 14 11 4 4 5 3 11 20 24 25 18 20 19 15 13 15 16 12 18 18 15
31 45 46 48 46 48 49 46 50 48 41 40 37 36 28 25 28 24 18 14 11 19 13 4 3 3 2 6 13 19 23 25 23 21 20 19 21 20 19 14 14 13 18 20
37 38 38 41 40 40 41 41 40 35 30 25 26 24 20 22 12 15 22 14 14 10 8 3 9 20 11 9 18 25 28 28 20 20 24 21 18 19 17 19 20 16 9 11
31 33 31 32 32 31 31 28 26 24 22 18 13 9 9 19 14 27 21 16 16 9 19 17 22 17 11 16 24 21 22 30 27 23 21 20 21 19 17 16 19 22 31 33
34 30 28 26 24 23 23 21 19 17 15 10 7 6 16 17 23 28 23 18 16 16 18 15 17 15 17 30 27 28 24 29 26 22 21 20 20 22 19 17 17 15 16 26
28 28 27 24 20 19 16 15 13 12 10 9 12 13 17 19 20 20 18 17 15 9 12 14 14 22 27 34 36 32 31 26 25 22 23 28 23 21 19 18 18 18 18 18
25 23 21 21 21 18 13 12 10 8 9 6 13 12 12 15 16 14 13 10 10 13 11 11 24 28 31 32 35 38 37 34 25 24 23 23 23 22 28 23 18 18 21 22
19 17 15 14 16 17 14 10 9 11 11 14 11 11 12 11 12 8 5 5 10 10 9 19 26 27 30 32 38 41 39 24 28 27 26 29 28 26 23 20 17 18 22 23
14 14 13 12 11 12 12 9 10 12 16 14 14 11 9 8 7 5 7 9 9 14 21 23 23 29 36 39 40 29 27 28 28 27 28 27 27 24 22 21 19 18 21 22
15 14 14 13 12 12 12 10 15 15 15 15 6 5 6 3 5 5 6 8 17 24 24 27 30 44 42 36 31 29 28 30 30 29 31 31 29 26 24 24 23 20 19 18
13 12 11 10 10 10 9 9 12 12 15 18 10 7 5 4 5 6 11 21 24 26 29 29 40 42 42 38 28 27 28 32 31 31 32 30 28 29 26 24 21 16 16 12
13 12 14 13 10 9 7 5 4 6 16 16 10 9 6 6 14 19 19 19 18 20 27 40 40 37 34 35 32 30 27 26 29 30 31 30 26 31 32 29 30 24 16 11
10 9 9 10 8 6 4 3 5 5 10 15 16 16 17 18 20 20 21 22 26 34 45 37 40 39 34 36 33 28 35 36 31 30 31 29 24 22 25 25 19 15 13 14
12 8 5 7 6 6 4 5 9 8 9 9 17 17 18 20 22 23 25 30 36 35 35 32 33 34 31 33 31 34 37 36 32 31 26 23 20 23 23 19 16 14 14 14
Wind_Direction_500mb
296 297 290 278 276 279 270 199 241 267 270 273 18 60 118 160 159 153 152 146 148 128 124 134 134 134 132 131 129 127 124 124 127 127 127 127 125 121 117 117 101 56 346 341
297 281 280 261 258 253 257 263 204 247 253 265 132 61 187 146 139 140 139 140 134 126 121 124 130 130 126 122 122 125 121 120 120 118 113 107 103 104 103 54 344 323 311 307
264 342 329 260 235 223 231 233 226 204 210 85 158 138 174 105 110 92 80 118 130 117 118 121 121 118 117 121 123 120 115 112 109 107 105 100 102 96 13 325 316 313 317 323
295 321 240 252 186 212 211 230 204 116 142 155 142 123 126 117 104 102 107 99 92 103 107 108 112 112 116 118 118 113 110 108 108 108 105 102 105 353 325 319 329 357 22 311
274 277 271 42 26 358 271 214 213 130 141 138 121 87 51 103 101 96 99 103 103 107 105 108 114 115 126 116 121 118 113 109 108 110 102 91 8 345 346 37 61 77 254 297
283 280 32 20 341 334 317 218 122 138 144 130 139 117 96 100 108 102 104 100 106 113 112 108 112 118 106 111 109 98 98 99 100 94 75 34 32 69 92 107 184 128 3 18
267 278 53 353 331 314 208 49 92 147 150 155 142 122 127 123 122 123 116 115 119 123 118 120 122 121 112 105 91 92 97 104 72 70 50 75 115 121 119 109 80 65 46 29
246 309 6 341 341 17 307 307 226 146 150 134 122 124 128 131 132 130 127 122 123 122 119 117 112 104 91 86 84 78 73 65 67 84 118 75 97 90 86 85 67 52 64 52
25 13 309 340 339 343 31 70 108 103 122 123 123 126 129 128 132 132 130 127 125 121 113 109 99 99 87 68 56 29 30 71 92 114 75 85 103 96 81 92 88 79 82 82
207 340 347 7 12 37 57 66 105 101 115 125 121 127 130 135 136 134 132 125 124 116 113 111 111 110 105 69 22 248 19 54 128 82 100 121 128 128 127 121 98 111 96 73
71 319 333 42 47 54 75 83 98 109 108 118 127 127 132 130 132 130 131 119 110 109 119 123 126 133 137 181 143 167 128 136 115 108 126 114 105 102 97 112 130 146 127 83
77 314 48 65 66 69 77 80 84 97 92 97 112 116 125 121 119 120 122 133 136 132 117 114 116 101 81 125 153 133 151 133 129 106 162 71 105 100 86 86 93 107 99 71
99 88 83 76 73 74 75 79 86 91 99 105 106 111 112 112 110 103 109 117 120 118 114 122 119 145 226 332 259 192 193 136 146 145 120 103 94 66 60 82 87 89 96 81
126 126 95 85 90 86 85 82 78 78 83 91 93 92 99 102 98 102 112 122 108 116 132 139 165 179 244 269 252 136 154 146 121 134 136 126 115 90 77 54 44 64 65 65
102 97 98 104 99 90 86 87 87 87 90 85 85 98 106 110 123 117 121 142 188 203 216 231 144 196 231 189 143 152 135 124 133 126 147 140 132 134 131 131 103 64 44 46
105 99 93 89 88 89 92 88 87 88 88 87 109 106 111 126 124 188 218 207 201 238 280 266 179 226 250 185 163 154 144 141 133 134 132 127 125 123 122 111 99 84 86 83
104 98 92 86 85 83 80 80 83 86 90 92 92 113 180 171 199 229 243 255 258 247 243 224 236 251 218 175 162 151 142 142 137 131 129 133 133 125 115 114 112 82 78 92
89 89 89 91 89 85 78 74 73 71 67 66 100 131 228 223 230 246 257 261 253 237 254 240 224 209 180 161 156 139 145 137 131 142 135 133 126 117 111 114 112 95 79 73
98 93 86 80 77 78 70 62 57 52 37 356 300 260 265 268 266 265 264 260 253 240 229 230 208 174 167 168 152 151 151 141 136 138 147 133 121 119 119 117 114 111 104 89
100 92 84 75 69 71 69 59 52 39 17 314 312 308 295 291 287 272 257 233 219 209 220 214 167 170 172 171 165 156 140 134 142 135 126 135 135 135 121 122 117 111 101 90
94 82 72 66 65 58 50 38 28 19 5 354 344 335 329 316 304 273 255 193 238 206 213 169 169 174 174 165 148 144 131 128 141 134 132 125 122 121 121 120 117 111 104 96
95 81 66 60 63 60 52 55 45 22 12 16 17 20 356 6 355 134 202 218 258 184 163 164 169 163 154 149 133 126 128 131 135 134 130 130 126 123 123 121 114 106 102 98
84 64 50 48 53 60 44 35 28 30 5 6 345 349 340 317 212 188 218 193 163 159 169 158 153 149 137 130 132 141 139 137 136 138 136 132 130 131 133 132 124 115 104 100
92 73 66 61 53 41 48 28 34 22 15 358 10 63 57 28 137 187 162 142 153 159 159 157 155 148 140 128 125 132 134 135 136 141 139 133 131 127 121 118 106 101 110 105
96 65 47 32 29 47 44 70 83 16 19 23 52 79 73 101 129 128 138 151 161 164 153 144 140 131 128 131 128 122 126 127 125 130 136 137 147 161 161 156 149 149 139 106
79 66 56 47 45 62 67 74 89 61 55 57 72 89 105 114 120 128 129 132 136 143 143 132 127 122 126 129 139 145 139 132 131 128 126 135 149 149 140 144 147 126 102 81
104 92 74 71 56 69 90 120 133 106 100 87 95 101 113 120 128 131 131 138 141 142 151 149 145 142 137 137 136 142 146 137 139 144 153 152 145 128 124 119 107 95 82 68
Wind_Speed_850mb
34 38 41 43 45 41 33 32 30 30 29 21 19 15 13 14 24 32 38 46 46 58 69 75 76 78 77 74 73 73 73 71 67 59 51 44 36 27 19 12 7 4 6 7
37 36 37 48 47 43 38 35 29 23 13 3 11 14 6 19 23 28 37 48 61 75 87 85 80 74 74 75 72 68 68 66 58 50 42 34 26 18 10 4 6 7 11 12
15 20 41 21 49 39 37 40 36 35 26 18 21 19 13 32 32 46 47 38 67 78 79 77 77 80 74 68 68 65 63 58 54 46 41 32 18 6 5 11 16 18 18 18
15 21 10 22 26 34 34 37 25 39 26 23 28 28 22 37 54 64 82 64 71 82 79 75 74 73 67 63 62 62 59 54 46 37 29 20 7 4 10 14 15 14 14 8
7 13 15 30 29 15 13 28 29 42 34 32 38 55 35 45 56 60 69 77 74 82 77 73 71 62 65 62 59 55 48 41 32 23 17 8 5 8 9 11 17 10 5 8
7 11 13 16 35 47 23 13 53 51 31 38 49 25 7 52 61 56 67 66 74 75 71 71 55 59 58 53 50 45 35 27 21 15 9 5 7 9 11 14 8 3 6 10
10 9 6 28 49 46 7 6 21 69 76 61 27 27 54 70 66 64 64 63 66 72 71 65 65 59 55 48 45 31 26 17 13 19 12 14 12 5 10 11 13 14 16 20
5 5 5 46 30 14 18 28 18 54 71 52 82 80 64 65 67 65 67 67 69 69 65 55 47 43 42 39 32 23 13 15 15 20 17 10 15 15 16 20 21 21 22 18
9 6 21 28 25 38 38 39 26 19 58 86 87 77 73 70 71 71 69 66 62 57 54 48 44 34 29 27 21 16 10 14 18 11 15 12 18 19 15 16 18 17 11 8
6 9 24 27 24 39 50 58 63 58 68 78 87 79 74 75 73 68 58 52 49 49 43 43 33 26 16 10 3 1 2 10 6 2 13 17 12 14 11 18 16 9 8 8
5 6 11 33 33 41 65 62 67 64 62 68 84 77 83 74 74 65 52 42 37 34 30 31 23 19 16 9 9 3 8 14 6 10 5 7 7 11 13 14 12 11 12 9
5 16 12 31 48 52 76 67 68 75 71 66 77 79 86 79 69 60 49 45 41 35 31 25 16 11 4 1 10 14 7 15 22 10 5 7 18 21 17 11 8 12 11 11
16 46 52 52 57 74 82 81 82 79 80 85 78 77 73 68 59 51 38 31 28 24 23 18 14 7 2 4 4 14 14 12 23 17 17 16 14 15 14 16 18 18 12 11
31 24 41 36 37 55 70 67 65 68 64 62 58 55 51 48 33 26 22 23 22 18 16 14 11 4 4 5 3 11 20 24 25 18 20 19 15 13 15 16 12 18 18 15
31 45 46 48 46 48 49 46 50 48 41 40 37 36 28 25 28 24 18 14 11 19 13 4 3 3 2 6 13 19 23 25 23 21 20 19 21 20 19 14 14 13 18 20
37 38 38 41 40 40 41 41 40 35 30 25 26 24 20 22 12 15 22 14 14 10 8 3 9 20 11 9 18 25 28 28 20 20 24 21 18 19 17 19 20 16 9 11
31 33 31 32 32 31 31 28 26 24 22 18 13 9 9 19 14 27 21 16 16 9 19 17 22 17 11 16 24 21 22 30 27 23 21 20 21 19 17 16 19 22 31 33
34 30 28 26 24 23 23 21 19 17 15 10 7 6 16 17 23 28 23 18 16 16 18 15 17 15 17 30 27 28 24 29 26 22 21 20 20 22 19 17 17 15 16 26
28 28 27 24 20 19 16 15 13 12 10 9 12 13 17 19 20 20 18 17 15 9 12 14 14 22 27 34 36 32 31 26 25 22 23 28 23 21 19 18 18 18 18 18
25 23 21 21 21 18 13 12 10 8 9 6 13 12 12 15 16 14 13 10 10 13 11 11 24 28 31 32 35 38 37 34 25 24 23 23 23 22 28 23 18 18 21 22
19 17 15 14 16 17 14 10 9 11 11 14 11 11 12 11 12 8 5 5 10 10 9 19 26 27 30 32 38 41 39 24 28 27 26 29 28 26 23 20 17 18 22 23
14 14 13 12 11 12 12 9 10 12 16 14 14 11 9 8 7 5 7 9 9 14 21 23 23 29 36 39 40 29 27 28 28 27 28 27 27 24 22 21 19 18 21 22
15 14 14 13 12 12 12 10 15 15 15 15 6 5 6 3 5 5 6 8 17 24 24 27 30 44 42 36 31 29 28 30 30 29 31 31 29 26 24 24 23 20 19 18
13 12 11 10 10 10 9 9 12 12 15 18 10 7 5 4 5 6 11 21 24 26 29 29 40 42 42 38 28 27 28 32 31 31 32 30 28 29 26 24 21 16 16 12
13 12 14 13 10 9 7 5 4 6 16 16 10 9 6 6 14 19 19 19 18 20 27 40 40 37 34 35 32 30 27 26 29 30 31 30 26 31 32 29 30 24 16 11
10 9 9 10 8 6 4 3 5 5 10 15 16 16 17 18 20 20 21 22 26 34 45 37 40 39 34 36 33 28 35 36 31 30 31 29 24 22 25 25 19 15 13 14
12 8 5 7 6 6 4 5 9 8 9 9 17 17 18 20 22 23 25 30 36 35 35 32 33 34 31 33 31 34 37 36 32 31 26 23 20 23 23 19 16 14 14 14
Wind_Direction_850mb
296 297 290 278 276 279 270 199 241 267 270 273 18 60 118 160 159 153 152 146 148 128 124 134 134 134 132 131 129 127 124 124 127 127 127 127 125 121 117 117 101 56 346 341
297 281 280 261 258 253 257 263 204 247 253 265 132 61 187 146 139 140 139 140 134 126 121 124 130 130 126 122 122 125 121 120 120 118 113 107 103 104 103 54 344 323 311 307
264 342 329 260 235 223 231 233 226 204 210 85 158 138 174 105 110 92 80 118 130 117 118 121 121 118 117 121 123 120 115 112 109 107 105 100 102 96 13 325 316 313 317 323
295 321 240 252 186 212 211 230 204 116 142 155 142 123 126 117 104 102 107 99 92 103 107 108 112 112 116 118 118 113 110 108 108 108 105 102 105 353 325 319 329 357 22 311
274 277 271 42 26 358 271 214 213 130 141 138 121 87 51 103 101 96 99 103 103 107 105 108 114 115 126 116 121 118 113 109 108 110 102 91 8 345 346 37 61 77 254 297
283 280 32 20 341 334 317 218 122 138 144 130 139 117 96 100 108 102 104 100 106 113 112 108 112 118 106 111 109 98 98 99 100 94 75 34 32 69 92 107 184 128 3 18
267 278 53 353 331 314 208 49 92 147 150 155 142 122 127 123 122 123 116 115 119 123 118 120 122 121 112 105 91 92 97 104 72 70 50 75 115 121 119 109 80 65 46 29
246 309 6 341 341 17 307 307 226 146 150 134 122 124 128 131 132 130 127 122 123 122 119 117 112 104 91 86 84 78 73 65 67 84 118 75 97 90 86 85 67 52 64 52
25 13 309 340 339 343 31 70 108 103 122 123 123 126 129 128 132 132 130 127 125 121 113 109 99 99 87 68 56 29 30 71 92 114 75 85 103 96 81 92 88 79 82 82
207 340 347 7 12 37 57 66 105 101 115 125 121 127 130 135 136 134 132 125 124 116 113 111 111 110 105 69 22 248 19 54 128 82 100 121 128 128 127 121 98 111 96 73
71 319 333 42 47 54 75 83 98 109 108 118 127 127 132 130 132 130 131 119 110 109 119 123 126 133 137 181 143 167 128 136 115 108 126 114 105 102 97 112 130 146 127 83
77 314 48 65 66 69 77 80 84 97 92 97 112 116 125 121 119 120 122 133 136 132 117 114 116 101 81 125 153 133 151 133 129 106 162 71 105 100 86 86 93 107 99 71
99 88 83 76 73 74 75 79 86 91 99 105 106 111 112 112 110 103 109 117 120 118 114 122 119 145 226 332 259 192 193 136 146 145 120 103 94 66 60 82 87 89 96 81
126 126 95 85 90 86 85 82 78 78 83 91 93 92 99 102 98 102 112 122 108 116 132 139 165 179 244 269 252 136 154 146 121 134 136 126 115 90 77 54 44 64 65 65
102 97 98 104 99 90 86 87 87 87 90 85 85 98 106 110 123 117 121 142 188 203 216 231 144 196 231 189 143 152 135 124 133 126 147 140 132 134 131 131 103 64 44 46
105 99 93 89 88 89 92 88 87 88 88 87 109 106 111 126 124 188 218 207 201 238 280 266 179 226 250 185 163 154 144 141 133 134 132 127 125 123 122 111 99 84 86 83
104 98 92 86 85 83 80 80 83 86 90 92 92 113 180 171 199 229 243 255 258 247 243 224 236 251 218 175 162 151 142 142 137 131 129 133 133 125 115 114 112 82 78 92
89 89 89 91 89 85 78 74 73 71 67 66 100 131 228 223 230 246 257 261 253 237 254 240 224 209 180 161 156 139 145 137 131 142 135 133 126 117 111 114 112 95 79 73
98 93 86 80 77 78 70 62 57 52 37 356 300 260 265 268 266 265 264 260 253 240 229 230 208 174 167 168 152 151 151 141 136 138 147 133 121 119 119 117 114 111 104 89
100 92 84 75 69 71 69 59 52 39 17 314 312 308 295 291 287 272 257 233 219 209 220 214 167 170 172 171 165 156 140 134 142 135 126 135 135 135 121 122 117 111 101 90
94 82 72 66 65 58 50 38 28 19 5 354 344 335 329 316 304 273 255 193 238 206 213 169 169 174 174 165 148 144 131 128 141 134 132 125 122 121 121 120 117 111 104 96
95 81 66 60 63 60 52 55 45 22 12 16 17 20 356 6 355 134 202 218 258 184 163 164 169 163 154 149 133 126 128 131 135 134 130 130 126 123 123 121 114 106 102 98
84 64 50 48 53 60 44 35 28 30 5 6 345 349 340 317 212 188 218 193 163 159 169 158 153 149 137 130 132 141 139 137 136 138 136 132 130 131 133 132 124 115 104 100
92 73 66 61 53 41 48 28 34 22 15 358 10 63 57 28 137 187 162 142 153 159 159 157 155 148 140 128 125 132 134 135 136 141 139 133 131 127 121 118 106 101 110 105
96 65 47 32 29 47 44 70 83 16 19 23 52 79 73 101 129 128 138 151 161 164 153 144 140 131 128 131 128 122 126 127 125 130 136 137 147 161 161 156 149 149 139 106
79 66 56 47 45 62 67 74 89 61 55 57 72 89 105 114 120 128 129 132 136 143 143 132 127 122 126 129 139 145 139 132 131 128 126 135 149 149 140 144 147 126 102 81
104 92 74 71 56 69 90 120 133 106 100 87 95 101 113 120 128 131 131 138 141 142 151 149 145 142 137 137 136 142 146 137 139 144 153 152 145 128 124 119 107 95 82 68